sat.trackr.live / text

‹ back to catalog

DMSP 5D-3 F16 (USA 172)

NORAD 28054 · 2003-048A

PAYLOAD ACTIVE UNKNOWN

§ Identity

Operator
Country
US
Launch date
2003-10-18
Launch site
AFWTR
Launch vehicle
Mass (kg)
RCS (m²)
4.30

Purposes: earth_obs

External: N2YO · Heavens-Above · Gunter

§ Orbital elements

Epoch: 2026-09-19T22:47:01.204800Z

Period
101.80 min
Inclination
98.9861°
Eccentricity
0.0006163
Mean motion
14.14491236 rev/d
Perigee alt
839.6 km
Apogee alt
848.5 km
Semi-major
7,222.2 km
B*
3.3291e-5
RAAN
287.3905°
Arg perigee
233.5625°
Mean anomaly
177.3354°
Rev number
18,288

§ Raw data

DMSP 5D-3 F16 (USA 172)1 28054U 03048A   26262.94931950  .00000018  00000+0  33291-4 0  99922 28054  98.9861 287.3905 0006163 233.5625 177.3354 14.14491236182880

JSON: /api/v1/satellites/28054 · /tle

For live sub-satellite position, see the globe view (requires WebGL).

§ Visibility from observer

Set your observer location to see the next 7 days of passes ≥ 10°. The values pass through the URL so the page stays shareable.

No JS? Fill the form by hand. The geolocation button needs JavaScript.

§ Radio — SatNOGS DB

ModeDescriptionDownlinkUplink
BPSK S-band telemetry 2.208 GHz
FM S-band telemetry 2.213 GHz

2 transmitters · refreshed weekly from db.satnogs.org